HF3P-11 Weather Reports


time (UTC)temp
C
wind
direction
speed
KPH
gust
KPH
rain 1hr
cm
rain 24hr
cm
rain mn
cm
humidity
%
barometer
mb
20260503022001 11 175 3.2 9.7 0.00 0.00 0.00 55 1009.1
20260503021502 11 174 3.2 9.7 0.00 0.00 0.00 55 1009.1
20260503021002 11 178 3.2 8.0 0.00 0.00 0.00 55 1009.2
20260503020453 11 181 3.2 9.7 0.00 0.00 0.00 54 1009.2
20260503020001 11 178 4.8 9.7 0.00 0.00 0.00 54 1009.2
20260503015453 11 182 4.8 8.0 0.00 0.00 0.00 54 1009.3
20260503015001 12 188 4.8 9.7 0.00 0.00 0.00 54 1009.2
20260503014453 12 186 4.8 9.7 0.00 0.00 0.00 54 1009.4
20260503014001 12 187 4.8 9.7 0.00 0.00 0.00 54 1009.3
20260503013453 12 182 4.8 11.3 0.00 0.00 0.00 54 1009.4
20260503012453 12 182 4.8 11.3 0.00 0.00 0.00 54 1009.5
20260503012001 12 194 4.8 11.3 0.00 0.00 0.00 54 1009.4
20260503011453 12 186 6.4 12.9 0.00 0.00 0.00 54 1009.4
20260503011001 11 177 6.4 12.9 0.00 0.00 0.00 55 1009.5
20260503010454 11 181 6.4 9.7 0.00 0.00 0.00 56 1009.6
20260503005953 11 185 4.8 9.7 0.00 0.00 0.00 56 1009.6
20260503005501 11 187 3.2 8.0 0.00 0.00 0.00 56 1009.4
20260503005002 11 183 3.2 8.0 0.00 0.00 0.00 57 1009.7
20260503004453 11 170 3.2 8.0 0.00 0.00 0.00 57 1009.4
20260503004001 11 170 3.2 8.0 0.00 0.00 0.00 57 1009.4
20260503003454 11 181 3.2 6.4 0.00 0.00 0.00 57 1009.6
20260503002954 11 178 3.2 6.4 0.00 0.00 0.00 57 1009.5
20260503002502 11 175 3.2 6.4 0.00 0.00 0.00 57 1009.8
20260503002001 11 173 3.2 6.4 0.00 0.00 0.00 57 1009.7
20260503001454 11 173 3.2 6.4 0.00 0.00 0.00 56 1009.8
20260503001001 11 177 3.2 6.4 0.00 0.00 0.00 56 1009.9
20260503000502 11 181 3.2 8.0 0.00 0.00 0.00 56 1009.9
20260503000001 11 181 3.2 8.0 0.00 0.00 0.00 56 1010.1
20260502235454 11 181 3.2 6.4 0.00 0.00 0.00 56 1009.9
20260502235001 12 185 3.2 6.4 0.00 0.00 0.00 56 1009.9
20260502234453 12 188 3.2 6.4 0.00 0.00 0.00 56 1010.1
20260502234001 12 184 4.8 6.4 0.00 0.00 0.00 56 1010.0
20260502233501 12 181 3.2 6.4 0.00 0.00 0.00 56 1010.2
20260502232953 12 181 3.2 6.4 0.00 0.00 0.00 55 1010.1
20260502232454 12 181 3.2 6.4 0.00 0.00 0.00 56 1010.2
20260502232002 12 190 3.2 6.4 0.00 0.00 0.00 55 1010.2
20260502231502 12 189 3.2 8.0 0.00 0.00 0.00 55 1010.2
20260502230953 12 181 3.2 8.0 0.00 0.00 0.00 55 1010.3
20260502230501 12 177 3.2 6.4 0.00 0.00 0.00 54 1010.2
20260502225954 12 177 3.2 6.4 0.00 0.00 0.00 54 1010.3
20260502225502 12 181 3.2 6.4 0.00 0.00 0.00 54 1010.5
20260502224953 12 181 3.2 6.4 0.00 0.00 0.00 54 1010.3
20260502224501 12 181 3.2 6.4 0.00 0.00 0.00 54 1010.4
20260502223953 12 181 3.2 6.4 0.00 0.00 0.00 53 1010.4
20260502223504 12 173 3.2 9.7 0.00 0.00 0.00 53 1010.6
20260502223001 12 167 4.8 9.7 0.00 0.00 0.00 53 1010.6
20260502222454 12 170 3.2 9.7 0.00 0.00 0.00 53 1010.4
20260502222002 13 172 3.2 6.4 0.00 0.00 0.00 53 1010.5
20260502221453 13 167 3.2 6.4 0.00 0.00 0.00 53 1010.5
20260502221001 13 160 3.2 6.4 0.00 0.00 0.00 53 1010.5
20260502220502 13 163 3.2 6.4 0.00 0.00 0.00 52 1010.7
20260502215954 13 176 3.2 6.4 0.00 0.00 0.00 52 1010.7
20260502215501 13 178 3.2 6.4 0.00 0.00 0.00 51 1010.7
20260502214953 13 178 3.2 6.4 0.00 0.00 0.00 51 1010.6
20260502214501 13 176 3.2 6.4 0.00 0.00 0.00 51 1010.6
20260502213953 13 176 3.2 8.0 0.00 0.00 0.00 51 1010.6
20260502213501 13 173 4.8 8.0 0.00 0.00 0.00 51 1010.7
20260502212953 13 173 3.2 8.0 0.00 0.00 0.00 51 1010.7
20260502212502 13 178 3.2 6.4 0.00 0.00 0.00 51 1010.8
20260502211953 14 177 3.2 6.4 0.00 0.00 0.00 51 1010.9
20260502211502 14 183 3.2 6.4 0.00 0.00 0.00 50 1010.9
20260502210954 14 183 3.2 6.4 0.00 0.00 0.00 50 1010.7
20260502210501 14 181 3.2 6.4 0.00 0.00 0.00 49 1010.7
20260502205953 14 181 3.2 6.4 0.00 0.00 0.00 49 1010.6
20260502205502 15 176 3.2 6.4 0.00 0.00 0.00 48 1010.8
20260502204954 15 176 3.2 6.4 0.00 0.00 0.00 48 1010.7
20260502204502 15 176 3.2 8.0 0.00 0.00 0.00 48 1010.9
20260502203953 15 175 3.2 8.0 0.00 0.00 0.00 48 1010.9
20260502203501 15 172 4.8 6.4 0.00 0.00 0.00 48 1010.9
20260502202953 15 174 4.8 6.4 0.00 0.00 0.00 48 1010.9
20260502202501 15 169 4.8 6.4 0.00 0.00 0.00 48 1010.9
20260502201956 15 169 3.2 6.4 0.00 0.00 0.00 48 1010.9
20260502201501 15 174 3.2 6.4 0.00 0.00 0.00 48 1010.8
20260502200953 15 161 3.2 6.4 0.00 0.00 0.00 47 1010.8
20260502200501 16 160 3.2 6.4 0.00 0.00 0.00 46 1010.9
20260502195954 16 168 3.2 6.4 0.00 0.00 0.00 46 1010.9
20260502195503 16 174 3.2 6.4 0.00 0.00 0.00 46 1010.9
20260502194954 16 174 3.2 6.4 0.00 0.00 0.00 45 1011.1
20260502194502 16 171 3.2 6.4 0.00 0.00 0.00 45 1011.1
20260502193954 16 175 3.2 6.4 0.00 0.00 0.00 44 1010.8
20260502193502 16 177 3.2 6.4 0.00 0.00 0.00 44 1011.0
20260502192953 16 175 3.2 6.4 0.00 0.00 0.00 44 1011.0
20260502192501 16 173 3.2 6.4 0.00 0.00 0.00 44 1011.1
20260502191953 17 161 4.8 6.4 0.00 0.00 0.00 44 1011.1
20260502191502 17 158 3.2 6.4 0.00 0.00 0.00 44 1011.1
20260502190954 17 170 3.2 6.4 0.00 0.00 0.00 43 1011.2
20260502190455 17 174 3.2 6.4 0.00 0.00 0.00 43 1011.3
20260502190002 17 174 3.2 6.4 0.00 0.00 0.00 43 1011.3
20260502185453 17 171 3.2 6.4 0.00 0.00 0.00 42 1011.2
20260502185002 18 168 3.2 6.4 0.00 0.00 0.00 42 1011.2
20260502184453 18 173 3.2 6.4 0.00 0.00 0.00 41 1011.2
20260502184002 18 164 3.2 6.4 0.00 0.00 0.00 41 1011.3
20260502183454 18 157 3.2 6.4 0.00 0.00 0.00 41 1011.1
20260502183002 18 166 3.2 6.4 0.00 0.00 0.00 41 1011.1
20260502182454 19 167 1.6 6.4 0.00 0.00 0.00 41 1011.1
20260502182002 19 170 1.6 6.4 0.00 0.00 0.00 40 1011.2
20260502181502 20 172 3.2 6.4 0.00 0.00 0.00 39 1011.1
20260502180954 20 175 3.2 6.4 0.00 0.00 0.00 39 1011.1
20260502180502 20 182 3.2 6.4 0.00 0.00 0.00 37 1011.0
20260502170501 22 206 8.0 17.7 0.00 0.00 0.00 33 1011.2
20260502163953 23 190 8.0 17.7 0.00 0.00 0.00 33 1011.4
20260502163501 23 203 9.7 17.7 0.00 0.00 0.00 33 1011.6
20260502162954 23 200 8.0 17.7 0.00 0.00 0.00 32 1011.6
20260502162502 23 185 8.0 14.5 0.00 0.00 0.00 32 1011.7
20260502161954 23 195 8.0 17.7 0.00 0.00 0.00 32 1011.7
20260502161501 23 199 9.7 17.7 0.00 0.00 0.00 33 1011.6
20260502160953 23 187 11.3 16.1 0.00 0.00 0.00 32 1011.8
20260502160502 24 178 11.3 17.7 0.00 0.00 0.00 33 1012.0
20260502151954 25 196 8.0 22.5 0.00 0.00 0.00 32 1012.5
20260502151502 25 213 8.0 17.7 0.00 0.00 0.00 33 1012.6
20260502150954 25 223 6.4 16.1 0.00 0.00 0.00 33 1012.6
20260502150502 25 212 6.4 16.1 0.00 0.00 0.00 32 1012.7
20260502130503 25 195 11.3 27.4 0.00 0.00 0.00 32 1014.1
20260502123503 25 222 9.7 24.1 0.00 0.00 0.00 32 1014.3
20260502122954 25 227 9.7 20.9 0.00 0.00 0.00 31 1014.6
20260502122502 24 224 8.0 20.9 0.00 0.00 0.00 31 1014.5
20260502121954 25 204 9.7 22.5 0.00 0.00 0.00 31 1014.5
20260502121503 25 192 9.7 22.5 0.00 0.00 0.00 31 1014.6
20260502120954 25 190 6.4 16.1 0.00 0.00 0.00 30 1014.7
20260502120502 25 197 4.8 11.3 0.00 0.00 0.00 31 1014.8
20260502115502 25 190 11.3 20.9 0.00 0.00 0.00 31 1015.1
20260502114954 24 205 11.3 19.3 0.00 0.00 0.00 30 1015.1
20260502114502 24 213 9.7 19.3 0.00 0.00 0.00 29 1015.0
20260502113954 24 218 8.0 17.7 0.00 0.00 0.00 29 1015.2
20260502113502 24 224 8.0 19.3 0.00 0.00 0.00 30 1015.3
20260502112955 24 199 8.0 22.5 0.00 0.00 0.00 30 1015.4
20260502112503 24 196 8.0 22.5 0.00 0.00 0.00 31 1015.3
20260502111954 24 221 8.0 17.7 0.00 0.00 0.00 30 1015.3
20260502111502 24 225 8.0 19.3 0.00 0.00 0.00 31 1015.3
20260502110954 24 200 6.4 19.3 0.00 0.00 0.00 31 1015.2
20260502105954 23 220 8.0 19.3 0.00 0.00 0.00 33 1015.3
20260502105503 23 234 8.0 17.7 0.00 0.00 0.00 34 1015.6
20260502104954 23 222 8.0 17.7 0.00 0.00 0.00 34 1015.4
20260502104502 23 222 8.0 22.5 0.00 0.00 0.00 34 1015.5
20260502103954 23 223 8.0 22.5 0.00 0.00 0.00 35 1015.7
20260502103502 23 199 4.8 17.7 0.00 0.00 0.00 36 1015.8
20260502102954 23 177 6.4 17.7 0.00 0.00 0.00 36 1015.8
20260502102502 23 198 8.0 17.7 0.00 0.00 0.00 36 1015.9
20260502101955 23 228 8.0 17.7 0.00 0.00 0.00 35 1015.9
20260502101502 23 226 6.4 17.7 0.00 0.00 0.00 35 1016.0
20260502100955 23 190 4.8 12.9 0.00 0.00 0.00 36 1016.1
20260502100503 22 192 6.4 17.7 0.00 0.00 0.00 36 1016.2
20260502091502 22 217 4.8 11.3 0.00 0.00 0.00 40 1016.4
20260502090954 22 228 6.4 9.7 0.00 0.00 0.00 40 1016.7
20260502090502 21 218 6.4 11.3 0.00 0.00 0.00 42 1016.6
20260502071455 18 226 6.4 11.3 0.00 0.00 0.00 51 1017.0
20260502071003 18 259 6.4 11.3 0.00 0.00 0.00 50 1017.1
20260502070455 18 245 6.4 11.3 0.00 0.00 0.00 49 1017.0
20260502070003 18 210 4.8 11.3 0.00 0.00 0.00 49 1017.1
20260502065455 18 227 4.8 9.7 0.00 0.00 0.00 49 1017.1
20260502065003 19 207 4.8 9.7 0.00 0.00 0.00 48 1017.2
20260502064454 20 193 4.8 9.7 0.00 0.00 0.00 50 1017.2
20260502064002 19 202 4.8 8.0 0.00 0.00 0.00 52 1017.2
20260502063455 18 193 4.8 9.7 0.00 0.00 0.00 52 1017.2
20260502063002 18 190 4.8 9.7 0.00 0.00 0.00 51 1017.2
20260502062455 18 197 3.2 8.0 0.00 0.00 0.00 51 1017.3
20260502062002 18 211 3.2 8.0 0.00 0.00 0.00 50 1017.2
20260502061454 18 215 3.2 8.0 0.00 0.00 0.00 49 1017.2
20260502061002 18 217 3.2 6.4 0.00 0.00 0.00 49 1017.4
20260502060454 18 223 3.2 8.0 0.00 0.00 0.00 49 1017.2
20260502055954 18 219 3.2 8.0 0.00 0.00 0.00 49 1017.1
20260502055502 18 210 3.2 8.0 0.00 0.00 0.00 50 1017.1
20260502054955 18 194 3.2 9.7 0.00 0.00 0.00 50 1017.2
20260502054503 18 192 3.2 9.7 0.00 0.00 0.00 50 1017.3
20260502053955 18 207 3.2 6.4 0.00 0.00 0.00 51 1017.1
20260502053503 18 202 3.2 6.4 0.00 0.00 0.00 51 1017.2
20260502052955 18 183 1.6 6.4 0.00 0.00 0.00 51 1017.2
20260502052502 19 173 1.6 4.8 0.00 0.00 0.00 52 1017.3
20260502051954 19 175 0.0 3.2 0.00 0.00 0.00 54 1017.2
20260502051502 18 198 1.6 3.2 0.00 0.00 0.00 57 1017.1
20260502050955 17 218 1.6 3.2 0.00 0.00 0.00 60 1017.1
20260502050503 15 225 1.6 3.2 0.00 0.00 0.00 63 1017.2
20260502045955 15 225 1.6 3.2 0.00 0.00 0.00 64 1017.3
20260502045504 15 225 0.0 3.2 0.00 0.00 0.00 68 1017.3
20260502044955 14 247 0.0 3.2 0.00 0.00 0.00 70 1017.1
20260502044502 13 264 0.0 3.2 0.00 0.00 0.00 73 1017.3
20260502043954 12 19 0.0 3.2 0.00 0.00 0.00 76 1017.3
20260502043455 11 45 0.0 1.6 0.00 0.00 0.00 79 1017.1
20260502043004 10 45 0.0 1.6 0.00 0.00 0.00 79 1017.0
20260502042503 9 0 0.0 0.0 0.00 0.00 0.00 79 1017.1
20260502042003 8 0 0.0 0.0 0.00 0.00 0.00 80 1017.0
20260502041455 8 0 0.0 0.0 0.00 0.00 0.00 82 1017.1
20260502041002 7 0 0.0 0.0 0.00 0.00 0.00 83 1017.2
20260502040455 6 0 0.0 0.0 0.00 0.00 0.00 82 1017.1
20260502040003 6 0 0.0 0.0 0.00 0.00 0.00 82 1017.0
20260502035503 6 135 0.0 3.2 0.00 0.00 0.00 82 1017.1
20260502034955 6 125 1.6 3.2 0.00 0.00 0.00 82 1017.0
20260502034502 6 123 1.6 3.2 0.00 0.00 0.00 81 1017.3
20260502033954 6 131 1.6 3.2 0.00 0.00 0.00 81 1017.2
20260502033503 6 135 0.0 3.2 0.00 0.00 0.00 81 1017.3
20260502032955 6 0 0.0 0.0 0.00 0.00 0.00 81 1017.4
20260502032455 6 0 0.0 0.0 0.00 0.00 0.00 81 1017.2
20260502032003 6 0 0.0 0.0 0.00 0.00 0.00 80 1017.3
20260502031455 6 90 0.0 3.2 0.00 0.00 0.00 80 1017.3
20260502031002 6 90 1.6 3.2 0.00 0.00 0.00 80 1017.2
20260502030456 6 90 1.6 3.2 0.00 0.00 0.00 80 1017.4
20260502030003 6 90 0.0 3.2 0.00 0.00 0.00 80 1017.4
20260502025455 6 90 0.0 3.2 0.00 0.00 0.00 80 1017.1
20260502025002 6 0 0.0 0.0 0.00 0.00 0.00 80 1017.3
20260502024455 6 0 0.0 0.0 0.00 0.00 0.00 80 1017.3
20260502024003 6 0 0.0 0.0 0.00 0.00 0.00 79 1017.3
20260502023455 6 0 0.0 0.0 0.00 0.00 0.00 79 1017.4
20260502023002 6 0 0.0 0.0 0.00 0.00 0.00 79 1017.5
20260502022503 6 0 0.0 0.0 0.00 0.00 0.00 79 1017.5